Location: Buch
(50.1863°N, 11.0141°E)
Time: 13:54:22
(UTC+00:00)

EXPRESS MD2 - Pass Details

Date: 18 January 2020
Orbit: 262 x 4042 km, 49.9° (Epoch: 16 February)

Event Time Altitude Azimuth Distance (km) Brightness Sun altitude
Exits shadow 04:36:50 29° 132° (SE) 725 4.4 -23.5°
Drops below altitude 10° 04:38:34 10° 92° (E) 1,236 6.2 -23.2°
Sets 04:40:13 0° 81° (E) 1,943 7.5 -23.0°
